Regional Weather Roundup
Issued by NWS

Home | Current Version | Previous Version | Graphics & Text | Print | Product List | Glossary On
Versions: 1 2 3 4 5 6 7 8 9 10 11 12 13 14 15 16 17 18 19 20 21 22 23 24 25 26 27 28 29 30 31 32 33 34 35 36 37 38 39 40 41 42 43 44 45 46 47 48 49 50
473
ASUS43 KOAX 291102
RWRNE

WEATHER ROUNDUP FOR NEBRASKA
NATIONAL WEATHER SERVICE OMAHA NE
600 AM CDT FRI APR 29 2016

NOTES: SATELLITE DATA IS BEING USED TO AUGMENT CLOUD COVER ABOVE
       12000 FEET.
       "FAIR" INDICATES FEW OR NO CLOUDS BELOW 12,000 FEET WITH NO
       SIGNIFICANT WEATHER AND/OR OBSTRUCTIONS TO VISIBILITY.

  * THESE STATIONS DO NOT REPORT WEATHER SUCH AS RAIN...SNOW OR FOG.

NEZ001>004-019>022-054>056-291200-
NEBRASKA PANHANDLE

CITY           SKY/WX    TMP DP  RH WIND       PRES   REMARKS
SCOTTSBLUFF    CLOUDY    35  33  92 SE6       30.10S WCI  30
ALLIANCE       CLOUDY    36  35  96 E5        30.09S WCI  32
CHADRON        CLOUDY    37  35  92 CALM      30.11S
KIMBALL        CLOUDY    33  33  99 E6        30.07F WCI  27
SIDNEY         CLOUDY    35  34  96 N3        30.08F
$$

NEZ057>060-069>072-079>082-291200-
SOUTHWEST NEBRASKA

CITY           SKY/WX    TMP DP  RH WIND       PRES   REMARKS
NORTH PLATTE   CLOUDY    40  37  89 NE6       30.09F
IMPERIAL       CLOUDY    41  38  89 NE6       30.07F
LEXINGTON      CLOUDY    42  39  89 NE6       30.09F
MCCOOK         CLOUDY    43  41  93 E8        30.06F
$$

NEZ005>010-023>029-035>040-094-291200-
NORTH CENTRAL NEBRASKA

CITY           SKY/WX    TMP DP  RH WIND       PRES   REMARKS
VALENTINE      CLOUDY    39  37  92 N5        30.11F
BROKEN BOW     CLOUDY    37  36  96 N7        30.08F WCI  32
O`NEILL        CLOUDY    41  39  95 CALM      30.11F FOG
ORD            CLOUDY    41  39  93 N5        30.09F
$$

NEZ041-046>049-061>064-073>077-083>087-291200-
SOUTH CENTRAL NEBRASKA

CITY           SKY/WX    TMP DP  RH WIND       PRES   REMARKS
GRAND ISLAND   CLOUDY    41  39  93 N7        30.08F
AURORA         CLOUDY    41  40  97 N7        30.07F
HASTINGS       MOCLDY    41  38  89 NE6       30.07F
KEARNEY *      CLOUDY    41  37  87 N7        30.09F
YORK           CLOUDY    43  39  87 NE10      30.08F
$$

NEZ011>018-030>034-042>045-291200-
NORTHEAST NEBRASKA

CITY           SKY/WX    TMP DP  RH WIND       PRES   REMARKS
NORFOLK        CLOUDY    41  38  89 N5        30.11S
ALBION         CLOUDY    41  38  87 N3        30.11S
BLAIR          CLOUDY    43  41  91 N6        30.10S
COLUMBUS *     CLOUDY    43  34  70 N8        30.09F
FREMONT        CLOUDY    43  41  93 N3        30.11F
TEKAMAH        CLOUDY    43  41  93 N7        30.12F
$$

NEZ050>053-065>068-078-088>093-291200-
SOUTHEAST NEBRASKA

CITY           SKY/WX    TMP DP  RH WIND       PRES   REMARKS
LINCOLN        CLOUDY    45  40  82 NE10      30.09F
OMAHA EPPLEY   CLOUDY    45  42  89 N8        30.10F
FALLS CITY     CLOUDY    46  39  76 N12       30.05F
$$

NEZ044-045-051>053-067-291200-
OMAHA AREA

CITY           SKY/WX    TMP DP  RH WIND       PRES   REMARKS
OMAHA EPPLEY   CLOUDY    45  42  89 N8        30.10F
BLAIR          CLOUDY    43  41  91 N6        30.10S
FREMONT        CLOUDY    43  41  93 N3        30.11F
OFFUTT AFB     CLOUDY    45  42  88 N6        30.09F
$$




USA.gov is the U.S. government's official web portal to all federal, state and local government web resources and services.